This is the latest recevied weather packets stored in our database for station/object K2CCS. If no packets are shown the sender has not sent any weather packets the latest 10 day(s).
| Time | Temp. | Humidity | Pressure | Rain* | Wind** | Luminosity | Snow |
|---|---|---|---|---|---|---|---|
| 1777076077 | 10° C | 44% | 1017.7 hPa | 0 mm | - | 0 W/m² | - |
| 1777075774 | 10° C | 43% | 1017.8 hPa | 0 mm | - | 0 W/m² | - |
| 1777075469 | 10.56° C | 43% | 1017.9 hPa | 0 mm | - | 0 W/m² | - |
| 1777075166 | 10.56° C | 43% | 1017.9 hPa | 0 mm | - | 0 W/m² | - |
| 1777074862 | 10.56° C | 42% | 1017.8 hPa | 0 mm | - | 0 W/m² | - |
| 1777074562 | 10.56° C | 42% | 1017.6 hPa | 0 mm | - | 0 W/m² | - |
| 1777074258 | 10.56° C | 42% | 1017.5 hPa | 0 mm | - | 1 W/m² | - |
| 1777073956 | 10.56° C | 42% | 1017.6 hPa | 0 mm | - | 4 W/m² | - |
| 1777073651 | 10.56° C | 41% | 1017.5 hPa | 0 mm | - | 7 W/m² | - |
| 1777073346 | 11.11° C | 41% | 1017.4 hPa | 0 mm | - | 10 W/m² | - |
| 1777073041 | 11.11° C | 40% | 1017.4 hPa | 0 mm | - | 14 W/m² | - |
| 1777072738 | 11.67° C | 41% | 1017.1 hPa | 0 mm | - | 16 W/m² | - |
| 1777072436 | 11.67° C | 40% | 1017.4 hPa | 0 mm | - | 19 W/m² | - |
| 1777072132 | 11.67° C | 39% | 1017 hPa | 0 mm | - | 22 W/m² | - |
| 1777071828 | 11.67° C | 39% | 1017.4 hPa | 0 mm | - | 24 W/m² | - |
| 1777071524 | 12.22° C | 38% | 1017.3 hPa | 0 mm | - | 27 W/m² | - |
| 1777071219 | 12.22° C | 38% | 1016.7 hPa | 0 mm | - | 28 W/m² | - |
| 1777070915 | 12.22° C | 38% | 1016.9 hPa | 0 mm | - | 31 W/m² | - |
| 1777070613 | 12.78° C | 38% | 1016.7 hPa | 0 mm | - | 32 W/m² | - |
| 1777070313 | 12.78° C | 38% | 1016.6 hPa | 0 mm | - | 79 W/m² | - |
| 1777070007 | 12.78° C | 38% | 1016.5 hPa | 0 mm | - | 37 W/m² | - |
| 1777069707 | 12.78° C | 37% | 1016.2 hPa | 0 mm | - | 113 W/m² | - |
| 1777069402 | 13.33° C | 37% | 1016.2 hPa | 0 mm | - | 49 W/m² | - |
| 1777069100 | 13.33° C | 37% | 1016.2 hPa | 0 mm | - | 145 W/m² | - |
| 1777068795 | 13.33° C | 36% | 1016 hPa | 0 mm | - | 154 W/m² | - |
* Rain latest hour (hover to see other rain measurements)
** Current wind speed in m/s (hover to see current wind gust speed)